PBO Station Position Time Series. Reference Frame : NAM14
Format Version,1.1.1
4-character ID,COND
Station name,CONDON
Begin Date, 2011-11-15
End Date, 2023-05-11
Release Date, 2023-06-22
Reference position, 45.2379067050 North Latitude, -120.1813784063 East Longitude, 865.42048 meters elevation,
Date, North (mm), East (mm), Vertical (mm), North Std. Deviation (mm), East Std. Deviation (mm),              Vertical Std. Deviation (mm), Quality,
2011-11-15,0.00, 0.00, 0.00, 2.68, 1.96, 8.67, repro,
2011-11-16,1.15, -1.57, -7.17, 2.16, 1.51, 6.92, repro,
2011-11-18,1.15, -2.07, -1.12, 2.21, 1.56, 7.14, repro,
2011-11-19,2.24, -0.56, -3.30, 2.17, 1.54, 6.98, repro,
2011-11-20,1.86, -0.71, -4.54, 2.15, 1.51, 6.86, repro,
2011-11-21,0.79, -0.59, -4.35, 2.16, 1.51, 6.87, repro,
2011-11-22,2.05, -0.88, -4.11, 2.14, 1.51, 6.91, repro,
2011-11-23,5.66, -0.02, -2.41, 2.23, 1.56, 7.08, repro,
2011-11-25,-0.68, -0.89, -4.05, 2.18, 1.53, 6.98, repro,
2011-11-26,1.80, -0.47, -5.14, 2.20, 1.53, 7.00, repro,
2011-11-27,1.79, -1.06, -10.21, 2.15, 1.50, 6.85, repro,
2011-11-28,-0.18, -2.79, -6.67, 2.16, 1.55, 7.04, repro,
2011-11-29,1.02, -0.28, -8.76, 2.17, 1.55, 7.00, repro,
2011-11-30,-0.23, 0.26, -4.35, 2.24, 1.55, 7.13, repro,
2011-12-02,0.89, -0.04, -8.08, 2.22, 1.58, 7.15, repro,
2011-12-03,1.11, -0.80, -14.24, 2.21, 1.60, 7.14, repro,
2011-12-05,2.44, -0.23, -12.15, 2.26, 1.61, 7.35, repro,
2011-12-06,0.54, -1.19, -9.14, 2.25, 1.58, 7.22, repro,
2011-12-07,2.15, -1.04, -7.77, 2.19, 1.54, 7.00, repro,
2011-12-09,-0.01, 0.04, -8.13, 2.14, 1.53, 6.93, repro,
2011-12-10,1.69, -0.84, -8.96, 2.17, 1.54, 7.00, repro,
2011-12-11,0.84, -0.35, -4.80, 2.16, 1.53, 6.95, repro,
2011-12-12,0.63, -1.27, -4.79, 2.16, 1.52, 6.89, repro,
2011-12-13,0.70, -0.66, -5.48, 2.20, 1.57, 7.09, repro,
2011-12-14,1.10, -1.48, -6.52, 2.15, 1.54, 6.98, repro,
2012-01-11,8.15, 2.92, -9.99, 9.31, 5.78, 24.71, repro,
2012-01-13,0.41, -4.75, 5.41, 8.72, 5.48, 30.69, repro,
2012-01-14,0.80, -0.85, -5.69, 2.25, 1.60, 7.12, repro,
2012-01-15,2.08, -2.38, -2.02, 2.23, 1.54, 7.03, repro,
2012-01-16,1.62, -2.23, -3.19, 2.17, 1.53, 7.03, repro,
2012-01-17,1.96, -2.02, -3.80, 2.19, 1.56, 7.15, repro,
2012-01-18,2.93, -0.31, -3.17, 2.28, 1.63, 7.46, repro,
2012-01-20,0.48, -0.78, -3.89, 2.23, 1.59, 7.25, repro,
2012-01-21,1.35, -0.11, 1.67, 2.33, 1.64, 7.54, repro,
2012-01-22,4.10, -0.68, -1.72, 2.26, 1.60, 7.30, repro,
2012-01-23,1.97, -0.22, -7.80, 2.19, 1.59, 7.25, repro,
2012-01-24,2.60, -1.11, -4.13, 2.23, 1.55, 7.08, repro,
2012-01-25,3.14, -1.73, -14.52, 2.15, 1.54, 6.93, repro,
2012-01-27,3.21, -0.41, -7.91, 2.11, 1.49, 6.79, repro,
2012-01-28,1.55, -1.01, -9.73, 2.08, 1.47, 6.72, repro,
2012-01-29,-0.94, -0.44, -6.19, 2.13, 1.51, 6.90, repro,
2012-01-30,1.67, -1.77, 2.27, 2.15, 1.50, 6.80, repro,
2012-01-31,1.87, -1.60, 1.54, 2.08, 1.46, 6.67, repro,
2012-02-01,2.04, -1.09, 2.15, 2.38, 1.72, 7.69, repro,
2012-02-03,-0.18, -1.57, -9.87, 2.09, 1.49, 6.77, repro,
2012-02-04,1.85, -0.63, -9.63, 2.16, 1.54, 6.97, repro,
2012-02-05,2.94, -0.38, -12.09, 2.29, 1.63, 7.29, repro,
2012-02-06,2.27, -1.35, -5.89, 2.15, 1.53, 6.92, repro,
2012-02-07,2.30, -1.63, -11.46, 2.18, 1.51, 6.95, repro,
2012-02-08,1.50, -0.64, -12.79, 2.21, 1.58, 7.05, repro,
2012-02-10,4.25, -0.58, -12.96, 2.15, 1.51, 6.85, repro,
2012-02-11,2.28, -0.59, -8.77, 2.32, 1.61, 7.28, repro,
2012-02-12,2.72, -1.46, -6.15, 2.12, 1.49, 6.74, repro,
2012-02-13,2.03, -1.63, -2.80, 2.12, 1.49, 6.76, repro,
2012-02-14,1.53, -1.50, -3.46, 2.11, 1.50, 6.79, repro,
2012-02-15,2.32, -1.36, -1.72, 2.14, 1.51, 6.84, repro,
2012-02-17,1.48, -1.55, -8.84, 2.21, 1.56, 7.08, repro,
2012-02-18,3.23, -0.42, -13.40, 2.15, 1.50, 6.85, repro,
2012-02-19,1.77, -2.22, -5.21, 2.12, 1.50, 6.78, repro,
2012-02-20,0.99, -1.05, -8.50, 2.14, 1.51, 6.88, repro,
2012-02-21,1.68, -0.18, 1.75, 2.20, 1.55, 7.08, repro,
2012-02-22,-1.06, -4.19, -4.70, 2.23, 1.60, 7.22, repro,
2012-02-24,2.84, -0.72, -9.93, 2.08, 1.46, 6.67, repro,
2012-02-25,2.47, -1.30, -0.17, 2.14, 1.50, 6.87, repro,
2012-02-26,2.58, -0.65, -9.59, 2.13, 1.49, 6.82, repro,
2012-02-27,2.23, -1.23, -5.09, 2.25, 1.56, 7.18, repro,
2012-02-28,2.88, -2.05, -9.03, 2.80, 2.04, 9.29, repro,
2012-02-29,1.71, -1.34, 4.25, 2.11, 1.48, 6.76, repro,
2012-03-02,0.75, -1.75, -7.61, 2.16, 1.53, 6.96, repro,
2012-03-03,2.74, -0.05, -1.81, 2.09, 1.47, 6.71, repro,
2012-03-04,2.43, -0.55, -11.72, 2.10, 1.48, 6.78, repro,
2012-03-05,1.34, -1.05, -4.64, 2.22, 1.53, 7.03, repro,
2012-03-06,2.21, -1.31, 1.53, 2.20, 1.52, 6.89, repro,
2012-03-07,2.51, -0.42, -3.59, 2.14, 1.49, 6.80, repro,
2012-03-09,2.43, -1.07, -9.98, 2.19, 1.53, 6.97, repro,
2012-03-10,1.02, 0.05, -2.62, 2.16, 1.51, 6.90, repro,
2012-03-11,2.38, -1.23, -1.87, 2.54, 1.71, 7.89, repro,
2012-03-12,2.81, -0.47, 1.77, 2.17, 1.49, 6.76, repro,
2012-03-13,0.75, -1.73, 6.63, 2.14, 1.49, 6.82, repro,
2012-03-14,3.28, -1.36, -3.78, 2.18, 1.55, 7.13, repro,
2012-03-16,2.93, -2.67, -1.77, 2.18, 1.51, 6.97, repro,
2012-03-17,2.82, -1.53, 0.08, 2.17, 1.50, 6.88, repro,
2012-03-18,2.17, -1.14, 1.58, 2.28, 1.55, 7.12, repro,
2012-03-19,1.66, -2.09, -3.51, 2.26, 1.55, 7.05, repro,
2012-03-21,-0.06, -0.28, -14.26, 2.15, 1.50, 6.85, repro,
2012-03-23,3.21, -0.44, -12.96, 2.15, 1.53, 6.88, repro,
2012-03-24,2.76, -1.60, -9.96, 2.20, 1.52, 6.96, repro,
2012-03-25,2.69, -1.82, -5.16, 2.21, 1.55, 7.11, repro,
2012-03-26,1.89, -1.82, -4.79, 2.14, 1.52, 6.89, repro,
2012-03-27,3.00, -0.54, -9.47, 2.28, 1.64, 7.28, repro,
2012-03-28,0.58, -1.12, -8.42, 2.40, 1.72, 7.82, repro,
2012-03-30,3.89, -1.61, -3.13, 2.13, 1.50, 6.81, repro,
2012-03-31,1.91, -1.73, -4.20, 2.09, 1.47, 6.71, repro,
2012-04-01,0.53, -2.38, -4.43, 2.11, 1.48, 6.80, repro,
2012-04-02,2.17, -0.66, -8.08, 2.10, 1.48, 6.78, repro,
2012-04-03,1.40, 0.19, -16.31, 2.09, 1.46, 6.69, repro,
2012-04-04,2.11, 0.76, -8.61, 2.08, 1.46, 6.63, repro,
2012-04-06,2.05, -1.44, -11.97, 2.09, 1.47, 6.72, repro,
2012-04-07,1.24, -1.25, -11.51, 2.10, 1.46, 6.73, repro,
2012-04-08,1.45, -0.70, -14.75, 3.35, 2.50, 11.60, repro,
2012-04-09,1.06, -0.67, -11.75, 2.18, 1.53, 7.10, repro,
2012-04-10,1.68, -1.22, -11.14, 2.08, 1.47, 6.73, repro,
2012-04-11,0.82, -1.39, -5.12, 2.09, 1.47, 6.74, repro,
2012-04-13,-3.64, -1.22, 1.65, 2.19, 1.55, 7.11, repro,
2012-04-14,0.81, -0.63, -3.66, 2.10, 1.47, 6.79, repro,
2012-04-15,1.18, -1.53, -10.29, 2.08, 1.46, 6.73, repro,
2012-04-16,0.10, -0.69, -7.40, 2.11, 1.49, 6.87, repro,
2012-04-17,-0.37, -0.86, -13.51, 2.08, 1.47, 6.73, repro,
2012-04-18,1.11, 0.85, -8.48, 2.09, 1.47, 6.74, repro,
2012-04-20,0.35, -0.96, -16.72, 2.09, 1.47, 6.77, repro,
2012-04-21,1.01, -1.86, -17.76, 2.09, 1.48, 6.79, repro,
2012-04-22,-0.02, -0.73, -10.23, 2.10, 1.48, 6.81, repro,
2012-04-23,0.41, -0.06, -7.38, 2.09, 1.47, 6.75, repro,
2012-04-24,-0.30, 0.02, -11.55, 2.16, 1.52, 6.98, repro,
2012-04-25,-0.20, -0.77, -13.35, 2.15, 1.50, 6.88, repro,
2012-04-27,-0.04, -0.03, -6.20, 2.18, 1.48, 6.88, repro,
2012-04-28,-0.89, -0.94, -15.28, 2.09, 1.47, 6.72, repro,
2012-04-29,0.14, -0.07, -16.19, 2.09, 1.47, 6.74, repro,
2012-04-30,-0.49, 0.45, -11.21, 2.12, 1.47, 6.80, repro,
2012-05-01,0.80, -0.44, -4.17, 2.16, 1.54, 7.00, repro,
2012-05-02,-0.03, 0.15, -4.74, 2.13, 1.52, 6.93, repro,
2012-05-04,-0.09, 0.71, -6.71, 2.57, 1.78, 8.23, repro,
2012-05-05,0.43, 0.56, -12.56, 2.66, 1.80, 8.31, repro,
2012-05-06,1.33, 0.26, -20.41, 2.68, 1.80, 8.29, repro,
2012-05-07,-0.51, -1.04, -16.67, 2.12, 1.49, 6.76, repro,
2012-05-08,0.68, -1.68, -8.15, 3.39, 2.32, 10.91, repro,
2012-05-09,-0.27, -1.87, -12.03, 2.26, 1.56, 7.21, repro,
2012-05-11,-0.42, -1.50, -16.01, 3.66, 2.75, 12.33, repro,
2012-05-12,-0.77, -0.63, -10.75, 3.09, 2.25, 9.89, repro,
2012-05-13,-1.34, -1.33, -10.00, 2.45, 1.72, 7.85, repro,
2012-05-14,-1.18, -1.15, -10.00, 2.08, 1.46, 6.70, repro,
2012-05-15,-2.57, -1.37, -5.28, 2.10, 1.47, 6.75, repro,
2012-05-16,-0.71, -1.27, -6.48, 2.09, 1.47, 6.75, repro,
2012-05-18,-2.56, -1.95, -6.54, 2.13, 1.49, 6.83, repro,
2012-05-19,-1.99, -0.77, -7.44, 2.12, 1.50, 6.85, repro,
2012-05-20,0.14, -0.84, -5.15, 2.57, 2.02, 8.94, repro,
2012-05-21,-2.83, -1.38, 0.74, 2.12, 1.50, 6.81, repro,
2012-05-22,-2.98, -2.62, -3.49, 2.22, 1.56, 7.13, repro,
2012-05-23,-0.79, -1.16, -3.56, 2.15, 1.50, 6.87, repro,
2012-05-25,-1.47, -1.00, -7.99, 2.13, 1.49, 6.82, repro,
2012-05-26,-1.21, -0.90, -0.55, 2.13, 1.49, 6.83, repro,
2012-05-27,-1.40, -1.39, -2.29, 2.09, 1.46, 6.70, repro,
2012-05-28,-2.51, -0.63, -1.04, 2.09, 1.46, 6.72, repro,
2012-05-29,-1.09, -3.06, -6.91, 2.09, 1.46, 6.68, repro,
2012-05-30,-1.81, -0.52, -3.48, 2.09, 1.46, 6.70, repro,
2012-06-01,-1.34, -0.53, -5.27, 2.09, 1.45, 6.69, repro,
2012-06-02,0.50, -0.79, 1.69, 2.13, 1.48, 6.78, repro,
2012-06-03,-2.81, -1.66, -7.15, 2.33, 1.68, 7.72, repro,
2012-06-04,-2.41, -1.07, -5.19, 2.14, 1.48, 6.83, repro,
2012-06-05,-1.02, -0.83, -4.50, 2.08, 1.46, 6.73, repro,
2012-06-06,-1.83, -1.01, -3.62, 2.14, 1.48, 6.84, repro,
2012-06-08,-3.22, -0.29, -3.84, 2.09, 1.46, 6.70, repro,
2012-06-09,-0.02, -0.98, -2.70, 2.07, 1.46, 6.67, repro,
2012-06-10,0.57, -0.80, -4.56, 2.09, 1.46, 6.71, repro,
2012-06-11,-0.78, -1.04, -8.43, 2.09, 1.46, 6.72, repro,
2012-06-12,-1.40, -1.45, -2.89, 2.09, 1.46, 6.68, repro,
2012-06-13,-1.61, -1.88, -5.10, 2.10, 1.46, 6.69, repro,
2012-06-15,-2.44, -1.77, -4.52, 2.52, 1.77, 8.36, repro,
2012-06-16,-0.98, -1.48, -2.72, 2.10, 1.46, 6.74, repro,
2012-06-17,-0.90, -1.89, 7.32, 2.11, 1.48, 6.82, repro,
2012-06-18,-1.16, -1.85, 4.49, 2.24, 1.58, 7.28, repro,
2012-06-19,-2.00, -1.45, -5.91, 2.10, 1.48, 6.73, repro,
2012-06-20,-1.56, -1.77, -3.53, 2.12, 1.49, 6.80, repro,
2012-06-22,-2.17, -1.59, 2.92, 2.11, 1.47, 6.75, repro,
2012-06-23,-2.34, -0.78, 0.81, 2.15, 1.51, 6.90, repro,
2012-06-24,-2.95, -1.44, -1.40, 2.09, 1.46, 6.69, repro,
2012-06-29,1.19, 0.74, -4.18, 4.30, 2.94, 12.68, repro,
2012-06-30,-1.45, -0.86, -1.97, 2.12, 1.49, 6.81, repro,
2012-07-01,-1.99, -1.76, -11.19, 2.11, 1.47, 6.77, repro,
2012-07-02,-1.14, -0.98, 0.22, 2.11, 1.49, 6.82, repro,
2012-07-03,-1.19, -2.06, 11.75, 2.13, 1.47, 6.76, repro,
2012-07-04,-2.58, -1.20, -2.14, 2.08, 1.45, 6.63, repro,
2012-07-06,-0.58, -1.67, -8.07, 2.13, 1.50, 6.89, repro,
2012-07-07,-1.95, -2.34, -3.24, 2.10, 1.46, 6.69, repro,
2012-07-08,-3.60, -2.31, -0.59, 2.13, 1.48, 6.80, repro,
2012-07-09,-2.20, -2.07, 1.42, 2.12, 1.47, 6.76, repro,
2012-07-10,-2.95, -4.36, 3.36, 2.38, 1.74, 7.76, repro,
2012-07-11,-2.82, -1.51, -2.66, 2.09, 1.46, 6.67, repro,
2012-07-13,-2.77, -1.26, 5.87, 2.09, 1.47, 6.73, repro,
2012-07-14,-2.60, -0.49, 3.43, 2.09, 1.47, 6.73, repro,
2012-07-15,-5.24, -0.96, -2.89, 2.41, 1.71, 7.80, repro,
2012-07-16,-2.05, -1.94, -3.03, 2.37, 1.65, 7.70, repro,
2012-07-17,-3.93, -3.61, 5.19, 2.28, 1.60, 7.34, repro,
2012-07-18,-4.57, -2.90, -4.79, 2.18, 1.50, 6.82, repro,
2012-07-20,-2.19, -1.77, 4.03, 2.21, 1.48, 6.91, repro,
2012-07-21,-2.22, -1.02, 0.12, 2.07, 1.45, 6.65, repro,
2012-07-22,-2.76, -1.08, -1.30, 2.14, 1.48, 6.76, repro,
2012-07-23,-3.59, -0.77, -2.82, 2.10, 1.47, 6.75, repro,
2012-07-24,-2.45, -1.47, -2.47, 2.08, 1.45, 6.67, repro,
2012-07-25,-2.83, -2.47, -2.32, 2.08, 1.46, 6.67, repro,
2012-07-27,-3.42, -2.98, 2.13, 2.09, 1.46, 6.70, repro,
2012-07-28,-3.59, -2.13, -3.19, 2.10, 1.46, 6.72, repro,
2012-07-29,-2.03, -1.96, 1.54, 2.09, 1.46, 6.72, repro,
2012-07-30,-2.52, -1.23, -0.79, 2.09, 1.47, 6.75, repro,
2012-07-31,-1.78, -1.36, -4.54, 2.11, 1.46, 6.72, repro,
2012-08-01,-4.56, -1.22, -4.84, 2.08, 1.45, 6.66, repro,
2012-08-03,-5.26, -2.42, 4.38, 2.09, 1.45, 6.70, repro,
2012-08-04,-2.81, -3.38, 0.13, 2.57, 1.82, 8.26, repro,
2012-08-05,-3.52, -2.55, 1.88, 2.09, 1.46, 6.70, repro,
2012-08-06,-2.75, -2.67, -7.41, 2.24, 1.56, 7.09, repro,
2012-08-07,-2.92, -2.58, 3.35, 2.13, 1.49, 6.90, repro,
2012-08-08,-5.04, -1.74, 2.18, 2.27, 1.59, 7.47, repro,
2012-08-10,-2.88, -2.71, 3.96, 2.09, 1.45, 6.67, repro,
2012-08-11,-3.69, -2.10, -1.19, 2.08, 1.45, 6.65, repro,
2012-08-12,-4.51, -2.46, 0.56, 2.09, 1.45, 6.66, repro,
2012-08-13,-3.61, -2.04, -3.54, 2.10, 1.46, 6.74, repro,
2012-08-14,-5.76, -2.49, 4.42, 2.09, 1.45, 6.69, repro,
2012-08-15,-3.17, -3.07, 1.72, 2.10, 1.46, 6.71, repro,
2012-08-17,-3.30, -2.65, 2.23, 2.32, 1.65, 7.62, repro,
2012-08-18,-3.42, -2.25, 5.22, 2.37, 1.62, 7.49, repro,
2012-08-21,-4.67, -1.51, 7.30, 2.50, 1.71, 7.95, repro,
2012-08-22,-5.07, -2.87, 5.63, 2.09, 1.46, 6.70, repro,
2012-08-24,-4.98, -0.38, 7.28, 2.82, 2.00, 9.31, repro,
2012-08-25,-4.78, -2.16, 4.89, 2.09, 1.45, 6.68, repro,
2012-08-26,-3.52, -2.77, 8.97, 2.13, 1.49, 6.88, repro,
2012-08-27,-3.21, 0.16, 6.26, 2.14, 1.51, 6.91, repro,
2012-08-28,-5.40, -2.03, 5.69, 2.41, 1.68, 7.77, repro,
2012-08-29,-8.43, 1.33, -2.09, 3.97, 3.14, 13.24, repro,
2012-08-31,-3.84, -2.13, 8.89, 2.08, 1.46, 6.69, repro,
2012-09-01,-4.69, -2.17, 1.27, 2.08, 1.45, 6.65, repro,
2012-09-02,-3.93, -1.42, 7.91, 2.07, 1.47, 6.70, repro,
2012-09-03,-4.31, -2.44, 3.46, 2.11, 1.46, 6.74, repro,
2012-09-04,-5.83, -1.58, 1.02, 2.34, 1.59, 7.25, repro,
2012-09-05,-4.03, -2.18, 5.30, 2.08, 1.47, 6.70, repro,
2012-09-07,-3.82, -0.85, 3.02, 2.09, 1.47, 6.70, repro,
2012-09-08,-5.12, -2.37, 3.81, 2.08, 1.47, 6.69, repro,
2012-09-09,-4.11, 0.34, 9.43, 2.15, 1.49, 6.84, repro,
2012-09-10,-6.03, -0.56, 2.30, 2.57, 1.82, 8.39, repro,
2012-09-11,-4.67, -1.64, 4.19, 2.12, 1.50, 6.80, repro,
2012-09-12,-4.46, -2.32, 0.50, 2.12, 1.50, 6.79, repro,
2012-09-14,-4.24, -1.92, 1.04, 2.12, 1.50, 6.85, repro,
2012-09-15,-2.05, -2.77, 2.58, 2.11, 1.47, 6.80, repro,
2012-09-16,-3.92, -1.26, -0.00, 2.09, 1.46, 6.68, repro,
2012-09-17,-4.03, -2.18, 3.69, 2.07, 1.46, 6.64, repro,
2012-09-18,-3.97, -1.77, 4.70, 2.11, 1.49, 6.77, repro,
2012-09-19,-4.86, -2.70, 8.01, 2.14, 1.51, 6.87, repro,
2012-09-21,-4.33, -2.18, 4.70, 2.10, 1.46, 6.71, repro,
2012-09-22,-3.80, -2.24, 6.58, 2.10, 1.46, 6.70, repro,
2012-09-23,-3.70, -1.82, 4.35, 2.09, 1.46, 6.70, repro,
2012-09-24,-4.16, -3.02, 7.66, 2.16, 1.51, 6.86, repro,
2012-09-25,-3.47, -1.84, 2.56, 2.12, 1.52, 6.86, repro,
2012-09-26,-3.37, -2.02, 2.87, 2.11, 1.50, 6.84, repro,
2012-09-28,-4.03, -2.50, 9.95, 2.12, 1.49, 6.80, repro,
2012-09-29,-4.08, -3.19, 5.56, 2.10, 1.47, 6.73, repro,
2012-09-30,-4.49, -2.95, -14.58, 3.14, 2.24, 10.45, repro,
2012-10-01,-3.90, -2.37, 0.74, 2.20, 1.54, 7.11, repro,
2012-10-02,-3.42, -1.58, 6.39, 2.20, 1.56, 7.14, repro,
2012-10-03,-3.02, -2.26, -0.13, 2.09, 1.47, 6.72, repro,
2012-10-05,-3.03, -1.48, 2.64, 2.10, 1.49, 6.74, repro,
2012-10-06,-3.94, -2.21, 1.47, 2.10, 1.46, 6.72, repro,
2012-10-07,-3.01, -1.53, 4.71, 2.16, 1.53, 6.94, repro,
2012-10-08,-3.57, -2.14, 7.30, 2.13, 1.51, 6.87, repro,
2012-10-09,-4.13, -2.45, 3.00, 2.12, 1.49, 6.81, repro,
2012-10-10,-2.36, -2.54, 1.40, 2.10, 1.48, 6.70, repro,
2012-10-17,-1.56, -2.34, 1.23, 2.12, 1.48, 6.77, repro,
2012-10-18,-1.09, -1.18, 1.93, 2.32, 1.65, 7.66, repro,
2012-10-19,-0.64, -1.44, 9.80, 2.33, 1.69, 7.68, repro,
2012-10-20,-0.41, -2.64, 5.86, 2.54, 1.82, 8.32, repro,
2012-10-21,-2.12, -1.83, 7.79, 2.12, 1.49, 6.77, repro,
2012-10-22,-1.34, -1.36, 4.08, 2.21, 1.58, 7.14, repro,
2012-10-23,-2.01, -1.90, -0.13, 2.18, 1.53, 7.03, repro,
2012-10-24,-1.82, -1.11, -1.16, 2.15, 1.49, 6.82, repro,
2012-10-25,-2.26, -1.63, -6.11, 2.12, 1.49, 6.75, repro,
2012-10-26,-1.52, -0.68, -9.07, 2.19, 1.52, 6.92, repro,
2012-10-27,-1.53, -0.66, -4.05, 2.14, 1.49, 6.81, repro,
2012-10-28,-2.75, -1.55, -0.50, 2.15, 1.50, 6.86, repro,
2012-10-29,-0.69, -0.77, 1.68, 2.15, 1.50, 6.88, repro,
2012-10-30,-2.78, -1.53, -0.16, 2.12, 1.49, 6.78, repro,
2012-10-31,-0.06, -1.20, 0.83, 2.15, 1.52, 6.89, repro,
2012-11-01,-1.26, -1.20, -8.04, 2.12, 1.50, 6.79, repro,
2012-11-02,-0.61, -1.11, -4.43, 2.17, 1.53, 6.96, repro,
2012-11-03,-1.76, -0.79, -4.07, 2.18, 1.51, 6.98, repro,
2012-11-04,-1.85, -1.48, -6.92, 3.27, 2.11, 10.23, repro,
2012-11-10,0.92, -2.37, -1.31, 2.17, 1.53, 6.96, repro,
2012-11-11,0.30, -1.56, -0.84, 2.15, 1.53, 6.94, repro,
2012-11-12,-0.54, -1.14, -3.77, 2.16, 1.52, 6.89, repro,
2012-11-13,0.90, -1.51, -10.54, 2.16, 1.53, 6.95, repro,
2012-11-14,-0.31, -1.05, -5.32, 2.15, 1.50, 6.87, repro,
2012-11-15,0.74, -0.36, -10.26, 2.19, 1.52, 6.97, repro,
2012-11-16,0.22, -1.36, -5.06, 2.16, 1.54, 6.98, repro,
2012-11-17,1.43, -0.98, 0.31, 2.13, 1.50, 6.84, repro,
2012-11-18,-1.89, -1.04, -4.93, 2.15, 1.51, 6.91, repro,
2012-11-19,1.55, -0.97, -0.51, 2.19, 1.56, 7.02, repro,
2012-11-20,3.83, -1.86, -4.95, 2.21, 1.52, 7.06, repro,
2012-11-21,1.57, -1.60, -1.63, 2.13, 1.48, 6.84, repro,
2012-11-22,1.30, -0.23, -7.11, 2.08, 1.47, 6.68, repro,
2012-11-23,-1.24, 0.49, -16.62, 2.08, 1.47, 6.64, repro,
2012-11-24,-0.25, -0.85, -5.23, 2.12, 1.50, 6.83, repro,
2012-11-25,0.93, -1.14, -5.13, 2.13, 1.50, 6.85, repro,
2012-11-26,-0.60, -0.88, -11.24, 2.68, 1.88, 8.69, repro,
2012-11-27,0.09, -1.30, -5.67, 2.13, 1.51, 6.86, repro,
2012-11-28,0.45, -1.74, -3.05, 2.18, 1.52, 6.95, repro,
2012-11-29,1.43, -1.62, -6.29, 2.16, 1.55, 6.91, repro,
2012-11-30,2.72, -0.38, -0.25, 2.12, 1.50, 6.84, repro,
2012-12-01,3.22, -1.78, 3.18, 2.12, 1.48, 6.76, repro,
2012-12-02,2.37, 0.92, -0.51, 2.12, 1.50, 6.85, repro,
2012-12-03,-0.53, -2.24, -1.62, 2.47, 1.72, 8.05, repro,
2012-12-05,2.74, -0.40, -6.98, 2.13, 1.51, 6.84, repro,
2012-12-06,2.28, -0.54, -4.96, 2.17, 1.56, 6.99, repro,
2012-12-07,2.10, -0.81, -8.10, 2.14, 1.51, 6.78, repro,
2012-12-08,3.10, -2.09, -7.31, 2.08, 1.47, 6.65, repro,
2012-12-09,1.05, -0.85, -5.16, 2.12, 1.51, 6.84, repro,
2012-12-10,1.84, -0.43, -12.75, 2.39, 1.72, 7.85, repro,
2012-12-11,1.57, -1.41, 7.36, 2.10, 1.48, 6.70, repro,
2012-12-12,1.38, -0.39, 5.24, 2.14, 1.51, 6.84, repro,
2012-12-13,0.35, -0.35, -2.60, 2.13, 1.50, 6.81, repro,
2012-12-14,1.91, -1.37, 0.20, 2.11, 1.50, 6.73, repro,
2012-12-15,0.78, -0.06, 2.63, 2.11, 1.50, 6.75, repro,
2012-12-16,1.43, -0.21, 1.32, 2.14, 1.51, 6.81, repro,
2012-12-17,3.40, -1.25, 6.61, 2.16, 1.54, 6.97, repro,
2012-12-18,0.94, -0.77, 1.56, 2.13, 1.50, 6.82, repro,
2012-12-19,2.52, -1.27, -2.63, 2.18, 1.53, 6.84, repro,
2012-12-20,5.30, -2.23, 4.04, 2.10, 1.49, 6.76, repro,
2012-12-21,2.27, -0.89, -7.07, 2.16, 1.53, 6.93, repro,
2012-12-22,2.43, -0.33, 4.98, 2.10, 1.47, 6.69, repro,
2012-12-23,4.13, -1.00, -3.19, 2.08, 1.47, 6.66, repro,
2012-12-24,1.65, -2.03, -5.44, 2.12, 1.50, 6.76, repro,
2012-12-25,2.82, -0.03, -7.52, 2.12, 1.50, 6.78, repro,
2012-12-26,6.11, -0.29, -9.02, 2.12, 1.50, 6.78, repro,
2012-12-27,4.24, 0.71, -8.06, 2.15, 1.50, 6.88, repro,
2012-12-28,3.15, -0.97, -17.23, 2.15, 1.52, 6.88, repro,
2012-12-29,2.21, -1.60, -16.01, 2.11, 1.49, 6.76, repro,
2012-12-30,1.11, -1.91, -10.38, 2.10, 1.47, 6.72, repro,
2012-12-31,2.16, -1.52, -9.65, 2.12, 1.50, 6.84, repro,
2013-01-01,2.18, -1.90, -13.56, 2.15, 1.53, 6.95, repro,
2013-01-02,0.98, -1.98, -14.01, 2.15, 1.53, 6.92, repro,
2013-01-03,-0.68, -1.92, -8.81, 2.11, 1.51, 6.82, repro,
2013-01-04,-0.25, -1.45, -17.44, 2.14, 1.51, 6.88, repro,
2013-01-05,-2.44, -3.22, -5.46, 2.12, 1.52, 6.87, repro,
2013-01-06,-1.29, -2.00, -0.82, 2.11, 1.51, 6.87, repro,
2013-01-07,3.09, -0.99, -3.35, 2.15, 1.53, 6.96, repro,
2013-01-08,2.57, -0.48, -1.41, 2.12, 1.50, 6.83, repro,
2013-01-09,2.73, 0.46, -2.96, 2.13, 1.51, 6.89, repro,
2013-01-10,2.20, -1.55, -4.66, 2.21, 1.59, 7.08, repro,
2013-01-11,2.94, -0.94, -7.97, 2.18, 1.58, 7.08, repro,
2013-01-12,2.91, -1.26, -6.40, 2.18, 1.61, 7.21, repro,
2013-01-13,2.58, -1.82, -9.80, 2.11, 1.50, 6.81, repro,
2013-01-14,1.84, -0.68, -10.92, 2.17, 1.55, 7.06, repro,
2013-01-15,2.50, -0.79, -13.62, 2.14, 1.54, 6.93, repro,
2013-01-16,3.29, -1.47, -16.21, 2.15, 1.50, 6.89, repro,
2013-01-17,2.72, -0.76, -17.51, 2.23, 1.56, 7.17, repro,
2013-01-18,2.93, -1.75, -12.65, 2.16, 1.56, 7.06, repro,
2013-01-19,3.49, -1.11, -8.34, 2.10, 1.48, 6.77, repro,
2013-01-20,2.36, -0.44, -11.72, 2.07, 1.47, 6.67, repro,
2013-01-21,3.15, -0.83, -11.19, 2.09, 1.48, 6.72, repro,
2013-01-22,3.39, -1.87, -13.44, 2.12, 1.53, 6.94, repro,
2013-01-23,3.12, -3.25, -6.79, 2.21, 1.55, 6.98, repro,
2013-01-24,4.14, -2.66, -4.71, 2.24, 1.59, 7.11, repro,
2013-01-25,3.07, -1.26, -10.95, 2.15, 1.55, 7.10, repro,
2013-01-26,2.94, -0.28, -4.12, 2.11, 1.51, 6.88, repro,
2013-01-27,4.75, -1.76, -2.95, 2.07, 1.48, 6.72, repro,
2013-01-28,4.25, -1.73, -8.03, 2.08, 1.48, 6.73, repro,
2013-01-29,5.03, -1.05, -8.09, 2.09, 1.49, 6.81, repro,
2013-01-30,4.27, -0.86, -9.05, 2.08, 1.48, 6.75, repro,
2013-01-31,4.60, -0.63, -10.70, 2.24, 1.55, 7.14, repro,
2013-02-01,5.21, -1.13, -20.31, 2.14, 1.50, 6.86, repro,
2013-02-02,2.88, -1.57, -16.26, 2.12, 1.49, 6.81, repro,
2013-02-03,3.72, -1.68, -11.17, 2.10, 1.48, 6.77, repro,
2013-02-04,3.25, -1.73, -2.74, 2.09, 1.49, 6.83, repro,
2013-02-05,2.11, -1.90, -2.43, 2.18, 1.54, 7.02, repro,
2013-02-06,4.19, -0.32, -10.01, 2.25, 1.54, 7.24, repro,
2013-02-07,3.44, -1.72, -8.65, 2.13, 1.49, 6.81, repro,
2013-02-08,3.76, -1.72, -4.05, 2.13, 1.49, 6.80, repro,
2013-02-09,4.14, -1.50, -10.03, 2.09, 1.48, 6.78, repro,
2013-02-10,3.95, -1.36, -16.09, 2.13, 1.51, 6.89, repro,
2013-02-11,2.17, -1.28, -7.36, 2.09, 1.48, 6.79, repro,
2013-02-12,3.09, -1.24, -12.54, 2.15, 1.49, 6.85, repro,
2013-02-13,3.24, -1.86, -6.04, 2.18, 1.54, 7.05, repro,
2013-02-14,3.57, -1.75, -16.23, 2.12, 1.53, 6.96, repro,
2013-02-15,3.34, -0.89, -18.98, 2.21, 1.58, 7.22, repro,
2013-02-16,2.90, -1.08, -13.21, 2.08, 1.48, 6.74, repro,
2013-02-17,3.07, -0.38, -6.53, 2.10, 1.49, 6.84, repro,
2013-02-18,4.05, -1.34, -7.39, 2.13, 1.50, 6.87, repro,
2013-02-19,2.86, -2.00, 0.03, 2.15, 1.50, 6.89, repro,
2013-02-20,2.90, -0.83, -0.37, 2.12, 1.52, 6.91, repro,
2013-02-21,2.34, -0.90, -3.27, 2.19, 1.52, 6.90, repro,
2013-02-22,2.66, -1.16, 4.03, 2.20, 1.55, 6.99, repro,
2013-02-23,4.19, -1.01, -4.81, 2.25, 1.57, 7.04, repro,
2013-02-24,3.92, -0.22, -7.67, 2.08, 1.49, 6.73, repro,
2013-02-25,2.28, -1.76, -9.78, 2.11, 1.48, 6.76, repro,
2013-02-26,3.51, -0.26, -12.19, 2.08, 1.48, 6.69, repro,
2013-02-27,2.26, -1.60, -11.25, 2.08, 1.48, 6.72, repro,
2013-02-28,2.13, -0.38, -11.99, 2.09, 1.48, 6.75, repro,
2013-03-01,2.50, -0.18, -17.57, 2.18, 1.59, 7.19, repro,
2013-03-02,3.12, -0.62, -12.05, 2.13, 1.51, 6.86, repro,
2013-03-03,1.78, -0.60, -7.48, 2.13, 1.52, 6.89, repro,
2013-03-04,3.23, -0.62, -9.93, 2.13, 1.52, 6.87, repro,
2013-03-05,1.48, -0.93, -8.54, 2.12, 1.51, 6.84, repro,
2013-03-06,2.79, -2.03, -11.48, 2.16, 1.54, 7.02, repro,
2013-03-07,2.85, -0.74, -11.50, 2.15, 1.53, 6.94, repro,
2013-03-08,2.91, -1.41, -11.50, 2.12, 1.51, 6.92, repro,
2013-03-09,3.07, -2.17, -6.26, 2.09, 1.52, 6.78, repro,
2013-03-10,2.13, -0.81, -5.75, 2.13, 1.52, 6.86, repro,
2013-03-11,2.44, -1.12, -12.38, 2.12, 1.51, 6.82, repro,
2013-03-12,2.05, -0.06, -11.90, 2.13, 1.51, 6.87, repro,
2013-03-13,1.94, -0.69, -8.46, 2.11, 1.51, 6.83, repro,
2013-03-14,2.69, -1.02, -11.54, 2.13, 1.52, 6.89, repro,
2013-03-15,2.70, -1.19, -8.32, 2.09, 1.50, 6.78, repro,
2013-03-16,1.74, -0.70, -6.75, 2.07, 1.48, 6.65, repro,
2013-03-17,1.82, -1.21, -4.01, 2.13, 1.52, 6.91, repro,
2013-03-18,3.24, 0.16, -0.85, 2.11, 1.50, 6.79, repro,
2013-03-19,1.86, -0.70, -8.96, 2.12, 1.49, 6.78, repro,
2013-03-20,3.23, -2.21, -8.23, 2.09, 1.48, 6.74, repro,
2013-03-21,2.71, -1.88, -7.28, 2.08, 1.49, 6.69, repro,
2013-03-22,3.88, 0.23, -9.97, 2.06, 1.48, 6.62, repro,
2013-03-23,2.53, -0.49, -8.04, 2.08, 1.48, 6.72, repro,
2013-03-24,2.34, -0.90, -12.30, 2.08, 1.47, 6.71, repro,
2013-03-25,2.77, -0.69, -10.57, 2.08, 1.48, 6.75, repro,
2013-03-26,1.67, -1.43, -7.98, 2.07, 1.48, 6.70, repro,
2013-03-27,1.80, -0.86, -10.94, 2.07, 1.48, 6.71, repro,
2013-03-28,2.12, -1.43, -13.17, 2.12, 1.52, 6.86, repro,
2013-03-29,1.08, -1.62, -9.96, 2.13, 1.53, 6.96, repro,
2013-03-30,2.12, -1.15, -9.79, 2.11, 1.52, 6.89, repro,
2013-03-31,2.29, -2.13, -6.92, 2.12, 1.52, 6.89, repro,
2013-04-01,1.58, -1.61, -2.95, 2.10, 1.50, 6.81, repro,
2013-04-02,1.22, -1.35, -9.34, 2.11, 1.52, 6.83, repro,
2013-04-03,0.54, -1.51, -10.20, 2.13, 1.53, 6.96, repro,
2013-04-04,-0.07, -1.11, -8.47, 2.16, 1.56, 7.12, repro,